Location: Hopville
(44.8032°N, 123.1329°W)
Time: 03:48:29
(UTC+00:00)

Cosmos 841 Rocket - Pass Details

Date: 24 January 2021
Orbit: 746 x 773 km, 74.0° (Epoch: 26 February)

Event Time Altitude Azimuth Distance (km) Brightness Sun altitude
Exits shadow 14:30:56 12° 254° (WSW) 2,100 5.3 -12.2°
Maximum altitude 14:34:30 24° 304° (NW) 1,520 4.5 -11.6°
Drops below altitude 10° 14:38:40 10° 358° (N) 2,281 5.8 -10.9°
Sets 14:41:29 0° 12° (NNE) 3,214 6.7 -10.4°
